Cosmos 2297 - Orbit

View from above orbital plane
View from above orbital plane
View from above satellite
View from above satellite

Ground track
Ground track

The orbit data is extracted from the following two-line orbital elements,

1 23404U 94077A   13145.15237144  .00000176  00000-0  11888-3 0  4966
2 23404 071.0142 159.2319 0017167 246.5646 175.4081 14.13331584954383
Epoch (UTC): 25 May 2013 03:39:24
Eccentricity: 0.0017167
inclination: 71.0142°
perigee height: 835 km
apogee height: 860 km
right ascension of ascending node: 159.2319°
argument of perigee: 246.5646°
revolutions per day: 14.13331584
mean anomaly at epoch: 175.4081°
orbit number at epoch: 95438

The dashed part of the orbit path shows where the satellite is in the earth's shadow,  

Developed and maintained by Chris Peat, Heavens-Above GmbH. Please read the updated FAQ before sending e-mail. Imprint. DLR